Flag for U.S.A. Weather past 2 weeks in Flint, Michigan, U.S.A.

Now
51 °F

Fog.


Feels Like: 48 °F
Forecast: 51 / 59 °F
Wind: 9 mph from Northwest

Location: Bishop International Airport

Current Time: Sep 30, 2014 at 8:35:20 AM

Latest Report: Sep 30, 2014 at 7:53 AM


Visibility: 1 mi

Pressure: 29.97 "Hg

Humidity: 89%

Dew point: 48 °F

Location of FlintLocation

Historic Weather in Flint — Graph

°F

Flint temperature yesterday

Maximum temperature yesterday: 80 °F (at 3:53 PM)
Minimum temperature yesterday: 48 °F (at 6:01 AM)
Average temperature yesterday: 64 °F

Past Weeks' High & Low Weather Summary

 TemperatureHumidityPressure
High80 °F (Sep 29, 3:53 PM)97% (Sep 26, 4:57 AM)30.45 "Hg (Sep 26, 4:57 AM)
Low37 °F (Sep 19, 4:53 AM)39% (Sep 19, 2:53 PM)29.59 "Hg (Sep 21, 6:53 AM)
Average59 °F73%30.14 "Hg
* Reported Sep 15 6:53 AM — Sep 30 6:53 AM, Flint, Weather by CustomWeather, © 2014

Note: Actual official high and low records may vary slightly from our data, if they occured in-between our weather recording intervals... More about our weather records

Advertising

Flint weather history for previous 24 hours

 ConditionsComfort  
Time TempWeatherWind HumidityBarometerVisibility
6:53 AM
Sep 30
51 °FFog.8 mph89%29.97 "Hg6 mi
5:53 AM52 °FLow clouds.10 mph86%29.96 "Hg10 mi
4:53 AM53 °FFog.9 mph89%29.95 "Hg6 mi
3:53 AM54 °FFog.9 mph90%29.93 "Hg3 mi
2:53 AM54 °FFog.10 mph90%29.93 "Hg4 mi
1:53 AM56 °FLow clouds.10 mph84%29.92 "Hg10 mi
12:53 AM57 °FMostly cloudy.9 mph87%29.91 "Hg10 mi
11:53 PM
Sep 29
59 °FRain. Fog.9 mph87%29.91 "Hg5 mi
10:53 PM64 °FLight rain. Fog.13 mph87%29.90 "Hg4 mi
9:53 PM68 °FOvercast.5 mph73%29.88 "Hg10 mi
8:53 PM68 °FClear.5 mph68%29.88 "Hg10 mi
7:53 PM71 °FSunny.5 mph61%29.88 "Hg10 mi
6:53 PM74 °FPassing clouds.5 mph57%29.89 "Hg10 mi
5:53 PM78 °FSunny.10 mph48%29.89 "Hg10 mi
4:53 PM79 °FSunny.8 mph47%29.90 "Hg10 mi
3:53 PM80 °FPassing clouds.8 mph45%29.91 "Hg10 mi
2:53 PM78 °FSunny.7 mph48%29.93 "Hg10 mi
1:53 PM77 °FSunny.6 mph50%29.96 "Hg10 mi
12:53 PM75 °FPassing clouds.5 mph52%29.98 "Hg10 mi
11:53 AM74 °FSunny.6 mph57%30.00 "Hg10 mi
10:53 AM71 °FSunny.5 mph63%30.01 "Hg10 mi
9:53 AM65 °FSunny.No wind78%30.03 "Hg7 mi
8:53 AM57 °FFog.N/A90%30.03 "Hg4 mi
8:00 AM50 °FFog.3 mph89%30.03 "Hg3 mi
Weather by CustomWeather, © 2014

See weather overviewHow to use our weather pages